Simultaneous Nadir Overpasses (SNOs) Predictions

Prediction of SNOs between AURA and NPP Satellite Orbit:

Table of predicted SNOs for the next 14.0 days since TLE Epoch: 11/13/2015
Index Date (AURA) Time (AURA) Lat,Lon (AURA) SZA (AURA ) Date (NPP) Time (NPP) Lat,Lon (NPP) SZA (NPP ) Distance(km) Time Diff (sec)
1 11/14/2015 09:46:07 -79.11, 107.72 69.92 11/14/2015 09:45:57 -79.11, 107.67 69.90 1.31 10
2 11/14/2015 10:35:25 79.42, -82.64 109.70 11/14/2015 10:36:32 79.42, -82.66 109.65 0.39 67
3 11/17/2015 01:13:15 78.92, 54.80 111.01 11/17/2015 01:12:10 78.92, 54.83 111.06 0.69 65
4 11/17/2015 02:02:36 -79.17,-136.05 69.30 11/17/2015 02:02:49 -79.17,-136.15 69.29 2.19 13
5 11/19/2015 17:29:42 79.08, 171.62 111.47 11/19/2015 17:29:00 79.08, 171.72 111.48 2.13 42
6 11/19/2015 18:19:03 -79.33, -19.18 68.85 11/19/2015 18:19:39 -79.32, -19.21 68.87 0.65 36
7 11/22/2015 09:46:11 79.14, -72.15 112.01 11/22/2015 09:45:53 79.13, -72.16 112.03 0.35 18
8 11/22/2015 10:35:32 -79.38, 97.08 68.31 11/22/2015 10:36:32 -79.37, 96.94 68.33 3.03 60
9 11/25/2015 01:13:22 -78.87,-125.52 67.08 11/25/2015 01:12:11 -78.86,-125.58 67.02 1.32 71
10 11/25/2015 02:02:39 79.21, 44.21 112.49 11/25/2015 02:02:45 79.21, 44.19 112.49 0.37 6
11 11/27/2015 17:29:46 -79.05, -8.57 66.77 11/27/2015 17:28:59 -79.05, -8.53 66.75 0.93 47




NCC Satellite Simultaneous N
